Time,TemperatureF,DewpointF,PressureIn,WindDirection,WindDirectionDegrees,WindSpeedMPH,WindSpeedGustMPH,Humidity,HourlyPrecipIn,Conditions,Clouds,dailyrainin,SoftwareType,DateUTC
2014-11-27 00:04:00,25.6,20.0,30.32,NE,45,0.0,0.0,79,0.00,,,0.00,WUHU216HW,2014-11-27 07:04:00,
2014-11-27 00:29:00,25.7,20.4,30.31,NE,45,0.2,0.2,80,0.00,,,0.00,WUHU216HW,2014-11-27 07:29:00,
2014-11-27 00:34:00,25.7,20.4,30.31,NE,45,0.2,0.2,80,0.00,,,0.00,WUHU216HW,2014-11-27 07:34:00,
2014-11-27 00:59:00,25.7,20.4,30.31,West,270,0.0,0.0,80,0.00,,,0.00,WUHU216HW,2014-11-27 07:59:00,
2014-11-27 01:04:00,25.7,20.4,30.31,West,270,0.0,0.0,80,0.00,,,0.00,WUHU216HW,2014-11-27 08:04:00,
2014-11-27 01:29:00,26.3,21.3,30.31,WSW,248,0.0,0.0,81,0.00,,,0.00,WUHU216HW,2014-11-27 08:29:00,
2014-11-27 01:34:00,26.3,21.3,30.31,WSW,248,0.0,0.0,81,0.00,,,0.00,WUHU216HW,2014-11-27 08:34:00,
2014-11-27 01:39:00,26.3,21.3,30.31,WSW,248,0.0,0.0,81,0.00,,,0.00,WUHU216HW,2014-11-27 08:39:00,
2014-11-27 01:59:00,26.3,20.6,30.31,WSW,248,0.2,0.2,79,0.00,,,0.00,WUHU216HW,2014-11-27 08:59:00,
2014-11-27 02:04:00,26.3,20.6,30.31,WSW,248,0.2,0.2,79,0.00,,,0.00,WUHU216HW,2014-11-27 09:04:00,
2014-11-27 02:29:00,28.8,22.1,30.31,SW,225,0.0,0.0,76,0.00,,,0.00,WUHU216HW,2014-11-27 09:29:00,
2014-11-27 02:34:00,28.8,22.1,30.31,SW,225,0.0,0.0,76,0.00,,,0.00,WUHU216HW,2014-11-27 09:34:00,
2014-11-27 02:59:00,33.7,23.8,30.31,WNW,293,0.2,0.2,67,0.00,,,0.00,WUHU216HW,2014-11-27 09:59:00,
2014-11-27 03:04:00,33.7,23.8,30.31,WNW,293,0.2,0.2,67,0.00,,,0.00,WUHU216HW,2014-11-27 10:04:00,
2014-11-27 03:29:00,34.0,22.3,30.31,West,270,1.3,1.3,62,0.00,,,0.00,WUHU216HW,2014-11-27 10:29:00,
2014-11-27 03:34:00,34.0,22.3,30.31,West,270,1.3,1.3,62,0.00,,,0.00,WUHU216HW,2014-11-27 10:34:00,
2014-11-27 03:59:00,36.4,23.4,30.30,SSE,158,0.4,0.4,59,0.00,,,0.00,WUHU216HW,2014-11-27 10:59:00,
2014-11-27 04:04:00,36.4,23.4,30.30,SSE,158,0.4,0.4,59,0.00,,,0.00,WUHU216HW,2014-11-27 11:04:00,
2014-11-27 04:29:00,35.3,21.6,30.30,SE,135,0.4,0.4,57,0.00,,,0.00,WUHU216HW,2014-11-27 11:29:00,
2014-11-27 04:34:00,35.3,21.6,30.30,SE,135,0.4,0.4,57,0.00,,,0.00,WUHU216HW,2014-11-27 11:34:00,
2014-11-27 04:59:00,37.1,20.2,30.29,ESE,113,0.0,0.0,50,0.00,,,0.00,WUHU216HW,2014-11-27 11:59:00,
2014-11-27 05:04:00,37.1,20.2,30.29,ESE,113,0.0,0.0,50,0.00,,,0.00,WUHU216HW,2014-11-27 12:04:00,
2014-11-27 05:29:00,36.9,20.4,30.29,SE,135,0.0,0.0,51,0.00,,,0.00,WUHU216HW,2014-11-27 12:29:00,
2014-11-27 05:34:00,36.9,20.4,30.29,SE,135,0.0,0.0,51,0.00,,,0.00,WUHU216HW,2014-11-27 12:34:00,
2014-11-27 05:59:00,36.9,19.5,30.29,ENE,68,0.0,0.0,49,0.00,,,0.00,WUHU216HW,2014-11-27 12:59:00,
2014-11-27 06:04:00,36.9,19.5,30.29,ENE,68,0.0,0.0,49,0.00,,,0.00,WUHU216HW,2014-11-27 13:04:00,
2014-11-27 06:09:00,36.9,19.5,30.29,ENE,68,0.0,0.0,49,0.00,,,0.00,WUHU216HW,2014-11-27 13:09:00,
2014-11-27 06:30:00,36.2,19.4,30.29,ENE,68,0.0,0.0,50,0.00,,,0.00,WUHU216HW,2014-11-27 13:30:00,
2014-11-27 06:35:00,36.2,19.4,30.29,ENE,68,0.0,0.0,50,0.00,,,0.00,WUHU216HW,2014-11-27 13:35:00,
2014-11-27 06:59:00,36.7,19.4,30.29,ESE,113,0.0,0.0,49,0.00,,,0.00,WUHU216HW,2014-11-27 13:59:00,
2014-11-27 07:04:00,36.7,19.4,30.29,ESE,113,0.0,0.0,49,0.00,,,0.00,WUHU216HW,2014-11-27 14:04:00,
2014-11-27 07:29:00,38.2,19.6,30.29,ESE,113,0.0,0.0,47,0.00,,,0.00,WUHU216HW,2014-11-27 14:29:00,
2014-11-27 07:34:00,38.2,19.6,30.29,ESE,113,0.0,0.0,47,0.00,,,0.00,WUHU216HW,2014-11-27 14:34:00,
2014-11-27 07:59:00,41.6,20.6,30.29,NE,45,0.0,0.0,43,0.00,,,0.00,WUHU216HW,2014-11-27 14:59:00,
2014-11-27 08:04:00,41.6,20.6,30.29,NE,45,0.0,0.0,43,0.00,,,0.00,WUHU216HW,2014-11-27 15:04:00,
2014-11-27 08:29:00,44.6,20.4,30.30,ENE,68,0.0,0.0,38,0.00,,,0.00,WUHU216HW,2014-11-27 15:29:00,
2014-11-27 08:34:00,44.6,20.4,30.30,ENE,68,0.0,0.0,38,0.00,,,0.00,WUHU216HW,2014-11-27 15:34:00,
2014-11-27 08:59:00,49.1,18.2,30.30,NE,45,0.0,0.0,29,0.00,,,0.00,WUHU216HW,2014-11-27 15:59:00,
2014-11-27 09:04:00,49.1,18.2,30.30,NE,45,0.0,0.0,29,0.00,,,0.00,WUHU216HW,2014-11-27 16:04:00,
2014-11-27 09:29:00,51.8,18.6,30.31,NW,315,0.0,0.0,27,0.00,,,0.00,WUHU216HW,2014-11-27 16:29:00,
2014-11-27 09:34:00,51.8,18.6,30.31,NW,315,0.0,0.0,27,0.00,,,0.00,WUHU216HW,2014-11-27 16:34:00,
2014-11-27 09:59:00,53.1,20.7,30.31,ENE,68,0.0,0.0,28,0.00,,,0.00,WUHU216HW,2014-11-27 16:59:00,
2014-11-27 10:04:00,53.1,20.7,30.31,ENE,68,0.0,0.0,28,0.00,,,0.00,WUHU216HW,2014-11-27 17:04:00,
2014-11-27 10:29:00,55.8,17.3,30.30,West,270,0.2,0.2,22,0.00,,,0.00,WUHU216HW,2014-11-27 17:29:00,
2014-11-27 10:34:00,55.8,17.3,30.30,West,270,0.2,0.2,22,0.00,,,0.00,WUHU216HW,2014-11-27 17:34:00,
2014-11-27 10:59:00,57.2,16.6,30.29,West,270,3.4,3.4,20,0.00,,,0.00,WUHU216HW,2014-11-27 17:59:00,
2014-11-27 11:04:00,57.2,16.6,30.29,West,270,3.4,3.4,20,0.00,,,0.00,WUHU216HW,2014-11-27 18:04:00,
2014-11-27 11:29:00,58.7,17.7,30.27,WNW,293,3.4,3.4,20,0.00,,,0.00,WUHU216HW,2014-11-27 18:29:00,
2014-11-27 11:34:00,58.7,17.7,30.27,WNW,293,3.4,3.4,20,0.00,,,0.00,WUHU216HW,2014-11-27 18:34:00,
2014-11-27 11:59:00,59.6,16.9,30.26,West,270,1.1,1.1,19,0.00,,,0.00,WUHU216HW,2014-11-27 18:59:00,
2014-11-27 12:04:00,59.6,16.9,30.26,West,270,1.1,1.1,19,0.00,,,0.00,WUHU216HW,2014-11-27 19:04:00,
2014-11-27 12:29:00,60.5,17.7,30.25,WSW,248,2.2,2.2,19,0.00,,,0.00,WUHU216HW,2014-11-27 19:29:00,
2014-11-27 12:34:00,60.5,17.7,30.25,WSW,248,2.2,2.2,19,0.00,,,0.00,WUHU216HW,2014-11-27 19:34:00,
2014-11-27 12:59:00,61.2,18.4,30.24,WSW,248,5.6,5.6,19,0.00,,,0.00,WUHU216HW,2014-11-27 19:59:00,
2014-11-27 13:04:00,61.2,18.4,30.24,WSW,248,5.6,5.6,19,0.00,,,0.00,WUHU216HW,2014-11-27 20:04:00,
2014-11-27 13:29:00,61.9,21.4,30.22,WNW,293,0.0,0.0,21,0.00,,,0.00,WUHU216HW,2014-11-27 20:29:00,
2014-11-27 13:34:00,61.9,21.4,30.22,WNW,293,0.0,0.0,21,0.00,,,0.00,WUHU216HW,2014-11-27 20:34:00,
2014-11-27 13:59:00,62.3,19.2,30.22,WNW,293,1.8,1.8,19,0.00,,,0.00,WUHU216HW,2014-11-27 20:59:00,
2014-11-27 14:04:00,62.3,19.2,30.22,WNW,293,1.8,1.8,19,0.00,,,0.00,WUHU216HW,2014-11-27 21:04:00,
2014-11-27 14:29:00,61.6,18.6,30.22,NW,315,3.8,3.8,19,0.00,,,0.00,WUHU216HW,2014-11-27 21:29:00,
2014-11-27 14:34:00,61.6,18.6,30.22,NW,315,3.8,3.8,19,0.00,,,0.00,WUHU216HW,2014-11-27 21:34:00,
2014-11-27 14:59:00,60.8,18.1,30.22,West,270,5.1,5.1,19,0.00,,,0.00,WUHU216HW,2014-11-27 21:59:00,
2014-11-27 15:04:00,60.8,18.1,30.22,West,270,5.1,5.1,19,0.00,,,0.00,WUHU216HW,2014-11-27 22:04:00,
2014-11-27 15:29:00,59.4,20.3,30.22,WSW,248,0.0,0.0,22,0.00,,,0.00,WUHU216HW,2014-11-27 22:29:00,
2014-11-27 15:34:00,59.4,20.3,30.22,WSW,248,0.0,0.0,22,0.00,,,0.00,WUHU216HW,2014-11-27 22:34:00,
2014-11-27 15:59:00,57.1,20.3,30.22,NNW,338,0.0,0.0,24,0.00,,,0.00,WUHU216HW,2014-11-27 22:59:00,
2014-11-27 16:04:00,57.1,20.3,30.22,NNW,338,0.0,0.0,24,0.00,,,0.00,WUHU216HW,2014-11-27 23:04:00,
2014-11-27 16:29:00,55.4,18.9,30.22,North,0,0.0,0.0,24,0.00,,,0.00,WUHU216HW,2014-11-27 23:29:00,
2014-11-27 16:34:00,55.4,18.9,30.22,North,0,0.0,0.0,24,0.00,,,0.00,WUHU216HW,2014-11-27 23:34:00,
2014-11-27 16:59:00,56.0,17.5,30.23,West,270,4.7,4.7,22,0.00,,,0.00,WUHU216HW,2014-11-27 23:59:00,
2014-11-27 17:04:00,56.0,17.5,30.23,West,270,4.7,4.7,22,0.00,,,0.00,WUHU216HW,2014-11-28 00:04:00,
2014-11-27 17:29:00,56.5,17.9,30.23,WSW,248,9.2,9.2,22,0.00,,,0.00,WUHU216HW,2014-11-28 00:29:00,